QPF
0.00 0.01 0.03 0.05 0.06 0.05 0.04 0.03 0.03 0.03 0.03 0.04 0.06 0.07 0.04 0.04 0.03 0.03 0.04 0.03 0.03 0.03 0.03 0.04 0.06 0.06 0.06 0.05 0.04 0.04 0.03 0.02 0.02 0.01 0.02 0.02 0.01 0.01 0.01 0.01 0.01 0.01 0.02
0.00 0.01 0.03 0.04 0.05 0.04 0.04 0.04 0.03 0.03 0.04 0.04 0.05 0.07 0.07 0.05 0.03 0.03 0.03 0.02 0.02 0.04 0.05 0.05 0.06 0.06 0.06 0.05 0.03 0.02 0.02 0.02 0.01 0.01 0.01 0.01 0.01 0.01 0.01 0.01 0.01 0.02 0.03
0.01 0.01 0.02 0.04 0.05 0.04 0.04 0.04 0.03 0.03 0.03 0.04 0.04 0.04 0.05 0.05 0.04 0.03 0.03 0.02 0.03 0.05 0.05 0.03 0.03 0.04 0.04 0.04 0.03 0.02 0.02 0.01 0.01 0.01 0.01 0.00 0.01 0.01 0.01 0.01 0.01 0.03 0.03
0.01 0.01 0.01 0.03 0.05 0.04 0.04 0.04 0.04 0.03 0.04 0.03 0.03 0.03 0.04 0.05 0.05 0.04 0.03 0.02 0.02 0.03 0.03 0.02 0.02 0.02 0.03 0.02 0.02 0.02 0.02 0.01 0.01 0.01 0.00 0.00 0.00 0.01 0.01 0.02 0.02 0.03 0.03
0.01 0.01 0.02 0.04 0.04 0.04 0.04 0.03 0.04 0.04 0.04 0.03 0.03 0.03 0.04 0.04 0.04 0.03 0.04 0.02 0.02 0.02 0.02 0.01 0.01 0.01 0.02 0.02 0.02 0.02 0.02 0.01 0.01 0.00 0.00 0.01 0.01 0.02 0.02 0.03 0.03 0.03 0.03
0.01 0.01 0.03 0.04 0.03 0.03 0.03 0.03 0.04 0.04 0.04 0.04 0.04 0.04 0.04 0.05 0.05 0.03 0.02 0.02 0.02 0.02 0.02 0.02 0.02 0.01 0.01 0.03 0.02 0.02 0.02 0.01 0.01 0.00 0.00 0.01 0.03 0.04 0.05 0.03 0.03 0.03 0.03
0.01 0.02 0.03 0.03 0.03 0.03 0.03 0.04 0.04 0.05 0.05 0.05 0.04 0.07 0.07 0.06 0.04 0.03 0.02 0.02 0.02 0.02 0.02 0.02 0.02 0.01 0.01 0.02 0.01 0.01 0.01 0.01 0.00 0.00 0.00 0.01 0.03 0.04 0.04 0.03 0.03 0.03 0.03
0.02 0.02 0.03 0.04 0.04 0.04 0.04 0.05 0.06 0.06 0.06 0.06 0.05 0.07 0.06 0.07 0.05 0.04 0.03 0.02 0.03 0.02 0.02 0.02 0.02 0.02 0.02 0.01 0.01 0.01 0.01 0.01 0.00 0.00 0.00 0.01 0.03 0.04 0.03 0.02 0.02 0.03 0.03
0.02 0.02 0.02 0.03 0.04 0.05 0.05 0.05 0.06 0.06 0.06 0.05 0.04 0.04 0.04 0.07 0.07 0.04 0.03 0.03 0.03 0.03 0.03 0.02 0.02 0.02 0.02 0.01 0.01 0.01 0.01 0.01 0.01 0.00 0.00 0.01 0.03 0.03 0.02 0.02 0.02 0.03 0.03
0.02 0.02 0.02 0.02 0.03 0.04 0.03 0.04 0.07 0.07 0.06 0.05 0.04 0.03 0.02 0.03 0.05 0.05 0.03 0.03 0.03 0.03 0.03 0.03 0.02 0.02 0.02 0.02 0.01 0.01 0.01 0.01 0.01 0.00 0.01 0.02 0.04 0.03 0.03 0.02 0.02 0.02 0.02
0.02 0.02 0.03 0.02 0.02 0.02 0.03 0.03 0.05 0.06 0.05 0.04 0.03 0.03 0.02 0.03 0.03 0.03 0.02 0.02 0.03 0.03 0.03 0.03 0.03 0.02 0.02 0.02 0.01 0.01 0.01 0.01 0.00 0.00 0.01 0.02 0.04 0.05 0.04 0.03 0.03 0.02 0.02
0.02 0.02 0.02 0.03 0.02 0.02 0.02 0.02 0.03 0.04 0.04 0.03 0.03 0.03 0.04 0.04 0.02 0.02 0.03 0.01 0.01 0.03 0.04 0.03 0.03 0.03 0.02 0.02 0.02 0.02 0.01 0.01 0.01 0.00 0.01 0.02 0.03 0.04 0.05 0.03 0.03 0.04 0.03
0.02 0.02 0.01 0.02 0.02 0.02 0.02 0.02 0.03 0.04 0.04 0.03 0.03 0.04 0.05 0.04 0.02 0.03 0.04 0.02 0.01 0.02 0.03 0.04 0.03 0.03 0.02 0.01 0.02 0.02 0.02 0.01 0.01 0.00 0.01 0.02 0.02 0.03 0.04 0.04 0.03 0.04 0.04
0.02 0.02 0.02 0.01 0.02 0.02 0.02 0.03 0.03 0.03 0.04 0.03 0.03 0.04 0.05 0.03 0.02 0.02 0.04 0.03 0.02 0.02 0.03 0.04 0.04 0.03 0.03 0.02 0.02 0.02 0.01 0.01 0.01 0.01 0.02 0.02 0.02 0.03 0.03 0.04 0.04 0.04 0.04
0.02 0.02 0.03 0.02 0.02 0.03 0.04 0.03 0.03 0.03 0.04 0.05 0.05 0.05 0.04 0.03 0.02 0.03 0.04 0.03 0.02 0.02 0.03 0.04 0.04 0.03 0.03 0.02 0.02 0.02 0.01 0.01 0.01 0.01 0.02 0.02 0.01 0.02 0.03 0.04 0.04 0.05 0.06
0.02 0.02 0.03 0.03 0.02 0.02 0.04 0.02 0.02 0.03 0.04 0.06 0.07 0.05 0.04 0.03 0.03 0.02 0.02 0.03 0.03 0.02 0.02 0.03 0.02 0.03 0.03 0.03 0.03 0.02 0.02 0.02 0.02 0.01 0.02 0.03 0.01 0.01 0.02 0.04 0.03 0.04 0.06
0.03 0.03 0.03 0.03 0.03 0.02 0.02 0.02 0.01 0.02 0.03 0.05 0.09 0.05 0.04 0.04 0.03 0.03 0.02 0.03 0.03 0.03 0.02 0.02 0.02 0.03 0.03 0.04 0.03 0.03 0.03 0.03 0.03 0.02 0.03 0.02 0.01 0.02 0.02 0.04 0.05 0.05 0.06
0.04 0.03 0.03 0.03 0.03 0.03 0.02 0.02 0.01 0.02 0.03 0.04 0.07 0.08 0.06 0.05 0.04 0.03 0.02 0.03 0.03 0.03 0.03 0.02 0.02 0.03 0.03 0.04 0.04 0.03 0.03 0.03 0.03 0.03 0.02 0.02 0.01 0.02 0.03 0.05 0.05 0.06 0.06
0.03 0.03 0.02 0.02 0.02 0.02 0.02 0.02 0.03 0.03 0.03 0.04 0.05 0.06 0.06 0.05 0.05 0.05 0.03 0.03 0.05 0.05 0.05 0.04 0.03 0.03 0.03 0.03 0.03 0.03 0.03 0.03 0.03 0.02 0.02 0.02 0.01 0.02 0.02 0.03 0.04 0.04 0.04
0.03 0.03 0.04 0.04 0.03 0.03 0.03 0.03 0.04 0.04 0.03 0.02 0.03 0.03 0.04 0.05 0.06 0.06 0.05 0.04 0.05 0.07 0.07 0.07 0.06 0.05 0.04 0.03 0.03 0.03 0.02 0.02 0.02 0.01 0.02 0.02 0.01 0.01 0.01 0.02 0.02 0.02 0.03
0.02 0.02 0.03 0.05 0.05 0.03 0.03 0.03 0.04 0.04 0.04 0.03 0.03 0.02 0.03 0.03 0.05 0.07 0.07 0.05 0.05 0.04 0.05 0.07 0.08 0.07 0.06 0.05 0.05 0.04 0.03 0.02 0.01 0.01 0.01 0.01 0.01 0.00 0.01 0.01 0.01 0.01 0.01
0.02 0.02 0.02 0.03 0.04 0.04 0.03 0.03 0.03 0.03 0.03 0.04 0.05 0.05 0.04 0.04 0.05 0.06 0.08 0.08 0.07 0.05 0.04 0.05 0.08 0.07 0.06 0.06 0.06 0.04 0.03 0.03 0.02 0.01 0.01 0.00 0.00 0.00 0.00 0.01 0.01 0.01 0.01
0.02 0.02 0.02 0.02 0.03 0.04 0.04 0.03 0.03 0.03 0.03 0.03 0.04 0.05 0.05 0.06 0.05 0.06 0.07 0.08 0.08 0.07 0.05 0.04 0.04 0.06 0.07 0.07 0.06 0.04 0.03 0.02 0.01 0.01 0.01 0.00 0.00 0.00 0.01 0.01 0.01 0.01 0.02
0.03 0.02 0.02 0.02 0.03 0.03 0.03 0.03 0.02 0.03 0.03 0.03 0.03 0.04 0.05 0.06 0.06 0.06 0.07 0.09 0.11 0.10 0.07 0.04 0.04 0.04 0.05 0.06 0.07 0.06 0.05 0.03 0.02 0.02 0.01 0.01 0.01 0.01 0.01 0.01 0.01 0.01 0.02
0.02 0.02 0.02 0.02 0.03 0.03 0.03 0.02 0.03 0.03 0.03 0.03 0.04 0.04 0.04 0.05 0.06 0.06 0.06 0.08 0.11 0.13 0.11 0.07 0.05 0.04 0.04 0.05 0.06 0.07 0.07 0.07 0.05 0.03 0.02 0.01 0.01 0.01 0.01 0.01 0.01 0.01 0.02
0.01 0.02 0.02 0.02 0.03 0.03 0.03 0.03 0.03 0.03 0.03 0.03 0.03 0.03 0.04 0.05 0.05 0.06 0.07 0.08 0.11 0.15 0.15 0.12 0.08 0.06 0.05 0.04 0.04 0.06 0.08 0.08 0.07 0.05 0.03 0.01 0.01 0.01 0.01 0.01 0.01 0.01 0.02
MSLP
1015.54 1015.35 1015.27 1015.34 1015.53 1015.79 1016.08 1016.34 1016.51 1016.59 1016.57 1016.51 1016.45 1016.43 1016.49 1016.62 1016.80 1017.01 1017.20 1017.34 1017.42 1017.44 1017.44 1017.44 1017.48 1017.57 1017.70 1017.88 1018.06 1018.22 1018.35 1018.43 1018.47 1018.50 1018.52 1018.56 1018.60 1018.66 1018.70 1018.73 1018.73 1018.71 1018.67
1015.37 1015.25 1015.25 1015.38 1015.63 1015.95 1016.28 1016.57 1016.77 1016.87 1016.89 1016.85 1016.82 1016.83 1016.91 1017.06 1017.26 1017.48 1017.67 1017.81 1017.89 1017.90 1017.89 1017.88 1017.90 1017.96 1018.08 1018.22 1018.38 1018.52 1018.63 1018.70 1018.75 1018.79 1018.84 1018.90 1018.97 1019.05 1019.11 1019.16 1019.17 1019.15 1019.11
1015.16 1015.13 1015.20 1015.40 1015.71 1016.08 1016.46 1016.80 1017.04 1017.19 1017.23 1017.23 1017.22 1017.25 1017.34 1017.49 1017.69 1017.90 1018.07 1018.20 1018.26 1018.27 1018.25 1018.23 1018.24 1018.30 1018.40 1018.53 1018.67 1018.80 1018.91 1018.98 1019.04 1019.10 1019.17 1019.25 1019.34 1019.44 1019.52 1019.58 1019.60 1019.59 1019.56
1014.96 1015.01 1015.15 1015.42 1015.79 1016.23 1016.66 1017.04 1017.32 1017.50 1017.59 1017.61 1017.62 1017.65 1017.73 1017.87 1018.04 1018.22 1018.37 1018.47 1018.51 1018.52 1018.50 1018.49 1018.51 1018.58 1018.69 1018.83 1018.98 1019.11 1019.22 1019.31 1019.39 1019.46 1019.54 1019.64 1019.74 1019.84 1019.93 1019.99 1020.02 1020.03 1020.02
1014.81 1014.93 1015.15 1015.49 1015.92 1016.40 1016.87 1017.29 1017.60 1017.81 1017.92 1017.96 1017.98 1018.01 1018.07 1018.18 1018.32 1018.45 1018.57 1018.65 1018.68 1018.69 1018.69 1018.70 1018.76 1018.86 1018.99 1019.16 1019.32 1019.48 1019.61 1019.72 1019.81 1019.90 1019.98 1020.08 1020.18 1020.27 1020.35 1020.41 1020.44 1020.45 1020.46
1014.75 1014.94 1015.23 1015.63 1016.10 1016.61 1017.11 1017.54 1017.88 1018.10 1018.22 1018.27 1018.30 1018.32 1018.37 1018.45 1018.55 1018.65 1018.73 1018.79 1018.83 1018.85 1018.87 1018.93 1019.03 1019.17 1019.35 1019.54 1019.74 1019.93 1020.08 1020.21 1020.32 1020.41 1020.49 1020.57 1020.65 1020.72 1020.78 1020.83 1020.85 1020.87 1020.89
1014.80 1015.06 1015.40 1015.84 1016.35 1016.88 1017.38 1017.81 1018.15 1018.38 1018.51 1018.57 1018.61 1018.63 1018.67 1018.73 1018.81 1018.88 1018.95 1018.99 1019.03 1019.08 1019.14 1019.23 1019.38 1019.56 1019.77 1020.01 1020.23 1020.44 1020.62 1020.76 1020.88 1020.97 1021.04 1021.10 1021.15 1021.19 1021.22 1021.25 1021.27 1021.30 1021.33
1015.01 1015.31 1015.70 1016.16 1016.68 1017.20 1017.68 1018.10 1018.42 1018.65 1018.80 1018.88 1018.93 1018.98 1019.03 1019.09 1019.15 1019.21 1019.27 1019.32 1019.37 1019.44 1019.53 1019.66 1019.83 1020.04 1020.28 1020.53 1020.77 1020.99 1021.18 1021.33 1021.44 1021.53 1021.59 1021.63 1021.66 1021.67 1021.68 1021.68 1021.70 1021.73 1021.77
1015.40 1015.74 1016.14 1016.61 1017.10 1017.58 1018.03 1018.41 1018.71 1018.94 1019.10 1019.22 1019.31 1019.39 1019.47 1019.55 1019.62 1019.69 1019.75 1019.80 1019.86 1019.95 1020.06 1020.20 1020.39 1020.61 1020.84 1021.08 1021.32 1021.53 1021.71 1021.86 1021.97 1022.06 1022.11 1022.14 1022.15 1022.14 1022.13 1022.13 1022.14 1022.18 1022.24
1016.03 1016.37 1016.76 1017.19 1017.63 1018.05 1018.43 1018.76 1019.03 1019.25 1019.44 1019.60 1019.74 1019.87 1019.99 1020.10 1020.20 1020.27 1020.34 1020.40 1020.47 1020.56 1020.68 1020.83 1021.01 1021.21 1021.42 1021.63 1021.83 1022.02 1022.18 1022.32 1022.43 1022.51 1022.57 1022.59 1022.60 1022.59 1022.58 1022.58 1022.60 1022.65 1022.72
1016.92 1017.23 1017.57 1017.92 1018.27 1018.59 1018.88 1019.13 1019.37 1019.58 1019.79 1019.99 1020.20 1020.39 1020.56 1020.71 1020.82 1020.91 1020.98 1021.05 1021.12 1021.22 1021.34 1021.48 1021.64 1021.82 1021.99 1022.15 1022.31 1022.45 1022.58 1022.70 1022.81 1022.89 1022.96 1023.00 1023.01 1023.01 1023.01 1023.02 1023.05 1023.11 1023.21
1018.09 1018.34 1018.59 1018.82 1019.02 1019.20 1019.37 1019.53 1019.71 1019.91 1020.13 1020.38 1020.64 1020.89 1021.10 1021.28 1021.42 1021.51 1021.59 1021.66 1021.73 1021.83 1021.95 1022.10 1022.24 1022.39 1022.52 1022.64 1022.74 1022.84 1022.94 1023.03 1023.13 1023.22 1023.30 1023.36 1023.39 1023.41 1023.42 1023.44 1023.48 1023.56 1023.66
1019.54 1019.68 1019.79 1019.85 1019.88 1019.88 1019.90 1019.94 1020.04 1020.21 1020.44 1020.72 1021.02 1021.31 1021.57 1021.77 1021.91 1022.00 1022.07 1022.14 1022.23 1022.34 1022.48 1022.63 1022.78 1022.91 1023.02 1023.10 1023.17 1023.22 1023.28 1023.35 1023.44 1023.54 1023.63 1023.70 1023.75 1023.78 1023.80 1023.83 1023.87 1023.95 1024.06
1021.20 1021.20 1021.12 1020.98 1020.80 1020.61 1020.44 1020.35 1020.36 1020.48 1020.70 1021.00 1021.33 1021.64 1021.91 1022.11 1022.25 1022.33 1022.39 1022.46 1022.56 1022.70 1022.87 1023.06 1023.24 1023.39 1023.50 1023.57 1023.60 1023.63 1023.66 1023.71 1023.78 1023.87 1023.97 1024.05 1024.10 1024.14 1024.15 1024.17 1024.21 1024.27 1024.37
1022.98 1022.80 1022.53 1022.17 1021.76 1021.35 1021.00 1020.76 1020.67 1020.73 1020.93 1021.23 1021.57 1021.89 1022.15 1022.33 1022.44 1022.50 1022.55 1022.61 1022.74 1022.91 1023.14 1023.39 1023.63 1023.83 1023.96 1024.04 1024.07 1024.08 1024.09 1024.12 1024.17 1024.25 1024.34 1024.41 1024.46 1024.48 1024.48 1024.48 1024.48 1024.52 1024.60
1024.74 1024.40 1023.92 1023.34 1022.71 1022.10 1021.58 1021.21 1021.02 1021.02 1021.18 1021.46 1021.79 1022.09 1022.32 1022.47 1022.54 1022.55 1022.57 1022.64 1022.78 1023.00 1023.30 1023.62 1023.94 1024.20 1024.40 1024.51 1024.56 1024.57 1024.56 1024.57 1024.61 1024.67 1024.73 1024.79 1024.82 1024.82 1024.79 1024.75 1024.71 1024.71 1024.76
1026.37 1025.87 1025.22 1024.46 1023.65 1022.87 1022.21 1021.72 1021.45 1021.39 1021.52 1021.78 1022.07 1022.34 1022.52 1022.61 1022.62 1022.59 1022.56 1022.61 1022.76 1023.02 1023.37 1023.76 1024.16 1024.51 1024.77 1024.93 1025.01 1025.03 1025.02 1025.02 1025.04 1025.07 1025.12 1025.16 1025.17 1025.14 1025.08 1025.00 1024.92 1024.88 1024.88
1027.78 1027.17 1026.39 1025.51 1024.57 1023.69 1022.93 1022.36 1022.03 1021.93 1022.03 1022.24 1022.50 1022.71 1022.84 1022.85 1022.78 1022.67 1022.59 1022.59 1022.72 1022.99 1023.37 1023.83 1024.29 1024.71 1025.03 1025.24 1025.36 1025.40 1025.40 1025.39 1025.40 1025.42 1025.45 1025.48 1025.47 1025.42 1025.34 1025.23 1025.12 1025.04 1025.01
1028.94 1028.27 1027.44 1026.49 1025.51 1024.58 1023.77 1023.17 1022.81 1022.68 1022.75 1022.92 1023.13 1023.28 1023.32 1023.25 1023.09 1022.88 1022.72 1022.65 1022.73 1022.97 1023.35 1023.82 1024.31 1024.77 1025.14 1025.40 1025.55 1025.61 1025.63 1025.62 1025.63 1025.65 1025.68 1025.70 1025.69 1025.64 1025.56 1025.44 1025.31 1025.22 1025.16
1029.89 1029.22 1028.39 1027.46 1026.50 1025.58 1024.79 1024.19 1023.82 1023.67 1023.70 1023.83 1023.98 1024.05 1024.01 1023.84 1023.57 1023.26 1022.98 1022.81 1022.81 1022.98 1023.31 1023.75 1024.24 1024.71 1025.09 1025.38 1025.55 1025.63 1025.66 1025.67 1025.68 1025.71 1025.75 1025.79 1025.80 1025.78 1025.71 1025.60 1025.49 1025.39 1025.33
1030.70 1030.07 1029.31 1028.45 1027.56 1026.71 1025.97 1025.40 1025.04 1024.88 1024.87 1024.95 1025.02 1025.01 1024.88 1024.60 1024.22 1023.79 1023.40 1023.11 1022.99 1023.05 1023.29 1023.66 1024.10 1024.54 1024.91 1025.20 1025.38 1025.48 1025.52 1025.54 1025.57 1025.61 1025.67 1025.73 1025.77 1025.78 1025.75 1025.69 1025.60 1025.53 1025.48
1031.47 1030.92 1030.26 1029.51 1028.73 1027.97 1027.30 1026.78 1026.42 1026.23 1026.18 1026.19 1026.19 1026.09 1025.87 1025.50 1025.02 1024.48 1023.96 1023.54 1023.29 1023.22 1023.34 1023.60 1023.96 1024.33 1024.67 1024.94 1025.11 1025.21 1025.26 1025.29 1025.32 1025.38 1025.45 1025.53 1025.61 1025.65 1025.67 1025.64 1025.60 1025.55 1025.53
1032.29 1031.82 1031.27 1030.64 1029.98 1029.32 1028.72 1028.23 1027.88 1027.66 1027.55 1027.48 1027.40 1027.23 1026.92 1026.48 1025.91 1025.28 1024.65 1024.12 1023.73 1023.53 1023.51 1023.66 1023.90 1024.20 1024.47 1024.70 1024.86 1024.95 1024.99 1025.01 1025.03 1025.08 1025.15 1025.23 1025.31 1025.38 1025.42 1025.43 1025.42 1025.41 1025.41
1033.19 1032.80 1032.35 1031.83 1031.27 1030.70 1030.15 1029.68 1029.31 1029.05 1028.87 1028.74 1028.58 1028.34 1027.98 1027.48 1026.86 1026.17 1025.47 1024.84 1024.35 1024.02 1023.88 1023.90 1024.03 1024.23 1024.44 1024.62 1024.73 1024.79 1024.81 1024.80 1024.79 1024.80 1024.83 1024.88 1024.94 1024.99 1025.03 1025.04 1025.05 1025.05 1025.06
1034.18 1033.84 1033.47 1033.03 1032.55 1032.04 1031.52 1031.05 1030.65 1030.34 1030.09 1029.89 1029.67 1029.38 1028.99 1028.47 1027.84 1027.13 1026.39 1025.71 1025.14 1024.72 1024.47 1024.37 1024.40 1024.51 1024.65 1024.77 1024.84 1024.86 1024.83 1024.77 1024.70 1024.63 1024.59 1024.56 1024.55 1024.54 1024.53 1024.52 1024.50 1024.50 1024.50
1035.20 1034.90 1034.57 1034.19 1033.75 1033.27 1032.77 1032.28 1031.85 1031.48 1031.18 1030.91 1030.65 1030.35 1029.95 1029.45 1028.83 1028.14 1027.41 1026.71 1026.10 1025.61 1025.28 1025.10 1025.04 1025.07 1025.14 1025.19 1025.22 1025.18 1025.09 1024.96 1024.80 1024.64 1024.48 1024.34 1024.22 1024.11 1024.02 1023.94 1023.87 1023.82 1023.80
Thickness
5683 5686 5688 5691 5692 5693 5694 5695 5696 5696 5696 5697 5698 5698 5698 5699 5699 5699 5700 5701 5701 5702 5702 5702 5703 5703 5703 5703 5703 5703 5703 5704 5704 5704 5704 5705 5706 5706 5706 5706 5707 5707 5707
5680 5683 5685 5687 5688 5689 5690 5690 5691 5691 5692 5692 5693 5693 5694 5694 5694 5695 5695 5696 5696 5697 5697 5698 5698 5698 5698 5698 5698 5698 5698 5699 5699 5699 5700 5700 5701 5701 5702 5702 5702 5703 5703
5677 5679 5681 5683 5684 5684 5685 5685 5686 5687 5687 5688 5688 5688 5689 5689 5689 5690 5690 5691 5691 5692 5692 5692 5693 5693 5693 5693 5693 5693 5694 5694 5694 5694 5695 5696 5696 5697 5697 5698 5698 5698 5699
5672 5674 5676 5678 5679 5679 5680 5680 5680 5681 5682 5682 5683 5683 5683 5683 5684 5684 5685 5686 5686 5686 5687 5687 5687 5688 5688 5688 5688 5688 5689 5689 5689 5690 5690 5691 5692 5692 5693 5693 5694 5694 5694
5666 5668 5670 5672 5673 5673 5674 5674 5675 5675 5676 5677 5677 5677 5678 5678 5678 5678 5679 5680 5680 5681 5681 5681 5682 5682 5682 5683 5683 5683 5683 5683 5684 5684 5685 5686 5686 5687 5688 5688 5689 5689 5689
5660 5662 5664 5666 5667 5667 5668 5668 5669 5669 5670 5670 5671 5671 5672 5672 5672 5672 5673 5673 5674 5674 5674 5675 5675 5676 5676 5677 5677 5677 5677 5677 5678 5679 5679 5680 5681 5682 5683 5683 5684 5684 5684
5653 5655 5657 5659 5660 5660 5661 5662 5662 5663 5663 5664 5665 5665 5665 5665 5666 5666 5666 5667 5667 5668 5668 5669 5669 5669 5670 5670 5671 5671 5671 5671 5672 5673 5674 5675 5676 5676 5677 5677 5678 5679 5679
5647 5648 5649 5651 5652 5653 5654 5654 5655 5656 5656 5657 5658 5658 5658 5659 5659 5659 5659 5660 5660 5661 5662 5662 5663 5663 5663 5663 5664 5664 5664 5665 5666 5667 5667 5669 5670 5671 5671 5672 5672 5673 5673
5639 5641 5642 5643 5644 5645 5646 5647 5648 5649 5649 5649 5650 5651 5651 5651 5651 5652 5652 5653 5653 5654 5654 5655 5656 5656 5656 5657 5657 5657 5658 5659 5659 5660 5661 5662 5663 5664 5665 5665 5666 5666 5667
5632 5633 5634 5635 5636 5637 5638 5639 5640 5641 5641 5642 5642 5642 5643 5643 5643 5644 5644 5645 5646 5646 5647 5647 5648 5648 5649 5649 5649 5650 5650 5651 5652 5652 5653 5655 5656 5657 5658 5659 5659 5660 5660
5623 5624 5625 5626 5628 5629 5630 5631 5632 5632 5633 5633 5634 5634 5635 5635 5635 5636 5637 5637 5638 5638 5638 5639 5639 5640 5641 5641 5641 5642 5642 5643 5644 5645 5646 5647 5648 5650 5651 5652 5652 5653 5654
5613 5615 5616 5618 5619 5621 5622 5623 5623 5624 5624 5625 5625 5626 5626 5626 5627 5627 5628 5629 5629 5630 5630 5630 5630 5631 5632 5632 5632 5633 5633 5634 5635 5636 5637 5639 5640 5642 5643 5644 5645 5645 5646
5604 5606 5607 5609 5610 5612 5613 5614 5614 5615 5615 5616 5616 5617 5618 5618 5618 5619 5619 5620 5621 5621 5621 5621 5621 5622 5622 5623 5624 5624 5625 5625 5626 5627 5628 5630 5632 5634 5635 5636 5636 5637 5638
5595 5597 5598 5599 5601 5603 5604 5605 5605 5606 5606 5606 5607 5608 5609 5609 5609 5610 5610 5611 5611 5612 5612 5612 5612 5612 5613 5613 5614 5615 5616 5616 5617 5618 5619 5621 5623 5625 5626 5627 5628 5629 5630
5586 5587 5589 5591 5592 5593 5595 5596 5596 5596 5597 5597 5597 5598 5599 5600 5600 5601 5601 5602 5602 5603 5603 5603 5603 5603 5603 5604 5604 5605 5606 5607 5607 5609 5610 5611 5613 5615 5617 5618 5619 5621 5622
5577 5578 5579 5581 5582 5584 5585 5586 5586 5586 5587 5587 5588 5588 5589 5590 5590 5591 5592 5592 5593 5593 5594 5594 5594 5594 5594 5594 5594 5595 5596 5597 5598 5599 5600 5601 5603 5605 5607 5608 5610 5611 5613
5567 5568 5570 5572 5572 5574 5575 5576 5576 5577 5577 5578 5578 5579 5579 5580 5580 5581 5582 5583 5583 5583 5584 5584 5584 5584 5584 5584 5584 5585 5585 5587 5588 5589 5590 5591 5592 5593 5595 5598 5599 5601 5603
5556 5558 5560 5562 5562 5564 5565 5566 5566 5567 5567 5567 5568 5569 5569 5570 5571 5571 5572 5572 5573 5573 5574 5574 5574 5573 5573 5573 5573 5574 5575 5576 5577 5578 5579 5580 5581 5582 5584 5586 5588 5590 5592
5546 5548 5550 5551 5552 5553 5554 5555 5556 5557 5557 5557 5558 5558 5559 5559 5560 5561 5561 5561 5562 5563 5563 5563 5562 5562 5562 5562 5562 5563 5564 5564 5565 5566 5567 5568 5569 5570 5572 5574 5575 5577 5579
5535 5537 5539 5540 5541 5542 5543 5544 5544 5545 5546 5546 5547 5548 5548 5549 5549 5550 5550 5550 5551 5552 5552 5552 5552 5552 5551 5551 5551 5552 5552 5553 5553 5554 5555 5555 5556 5557 5558 5560 5563 5565 5566
5524 5526 5527 5528 5529 5530 5531 5532 5533 5533 5534 5534 5535 5536 5537 5537 5538 5538 5539 5539 5539 5540 5540 5541 5541 5541 5539 5539 5539 5539 5541 5541 5542 5543 5542 5543 5543 5543 5545 5546 5549 5550 5553
5513 5514 5515 5516 5516 5518 5519 5520 5521 5521 5522 5523 5523 5524 5525 5526 5527 5527 5528 5528 5528 5528 5528 5529 5529 5529 5528 5527 5527 5527 5528 5530 5531 5531 5530 5530 5530 5530 5532 5533 5535 5536 5538
5502 5502 5504 5504 5504 5506 5507 5508 5509 5510 5510 5510 5511 5511 5512 5512 5514 5515 5515 5516 5516 5515 5515 5516 5517 5517 5516 5515 5515 5515 5515 5517 5517 5518 5518 5518 5518 5518 5519 5520 5522 5523 5525
5490 5490 5491 5491 5492 5493 5494 5495 5496 5496 5496 5496 5497 5497 5498 5499 5501 5502 5502 5503 5504 5503 5503 5503 5504 5505 5505 5504 5502 5502 5502 5503 5502 5504 5505 5505 5505 5506 5506 5508 5509 5510 5511
5478 5478 5478 5478 5479 5480 5480 5481 5481 5482 5482 5482 5483 5484 5486 5486 5487 5488 5489 5490 5491 5491 5491 5491 5491 5491 5492 5492 5491 5489 5489 5488 5488 5489 5492 5492 5493 5494 5494 5495 5496 5497 5498
5466 5466 5466 5467 5467 5467 5467 5467 5467 5468 5467 5468 5469 5470 5471 5472 5473 5474 5475 5475 5476 5477 5478 5479 5479 5479 5479 5479 5479 5478 5478 5477 5477 5476 5477 5478 5479 5482 5482 5483 5484 5485 5486